Weather History for Greenville, MS

Change the Weather History Date:

Monday, November 7, 2011

  Actual Average Record
Temperature  
Mean Temperature 66 °F 57 °F  
Max Temperature 79 °F 69 °F 86 °F (2005)
Min Temperature 53 °F 46 °F 24 °F (1959)
Degree Days  
Heating Degree Days 0 9  
Month to date heating degree days 55 55  
Since 1 July heating degree days 206 169  
Cooling Degree Days 1 1  
Month to date cooling degree days 1 7  
Year to date cooling degree days 2435 2181  
Growing Degree Days 16 (Base 50)    
Moisture  
Dew Point 55 °F    
Average Humidity 70    
Maximum Humidity 93    
Minimum Humidity 46    
Precipitation  
Precipitation 0.00 in 0.14 in 3.53 in (1972)
Month to date precipitation 0.30 1.00  
Year to date precipitation 23.12 42.96  
Sea Level Pressure  
Sea Level Pressure 30.17 in    
Wind  
Wind Speed 9 mph (SSE)    
Max Wind Speed 17 mph    
Max Gust Speed 22 mph    
Visibility 10 miles    
Events      
T = Trace of Precipitation, MM = Missing Value Source: NWS Daily Summary

Daily Weather History Graph

Daily Weather History Graph

Search for Another Location

Airport:

Trip Planner

Search our weather history database for the weather conditions in past years. The results will help you decide how hot, cold, wet, or windy it might be!

Date:

Astronomy

Nov. 07, 2011 Rise Set
Actual Time 6:27 AM CST 5:06 PM CST
Civil Twilight 6:01 AM CST 5:32 PM CST
Nautical Twilight 5:32 AM CST 6:02 PM CST
Astronomical Twilight 5:03 AM CST 6:31 PM CST
Moon 3:13 PM CST (11/7) 3:37 AM CST (11/7)
Length of Visible Light 11h 31m
Length of Day
10h 39m
Waxing Gibbous, 92% of the Moon is Illuminated
Nov 7
Waxing Gibbous
Nov 10
Full
Nov 18
Last Quarter
Nov 25
New
Dec 2
First Quarter

Hourly Weather History & Observations

Time (CST) Temp. Dew Point Humidity Pressure Visibility Wind Dir Wind Speed Gust Speed Precip Events Conditions
12:53 AM 60.1 °F 53.1 °F 78% 30.22 in 10.0 mi SE 9.2 mph - N/A   Overcast
1:53 AM 60.1 °F 53.1 °F 78% 30.21 in 10.0 mi SE 8.1 mph - N/A   Overcast
2:53 AM 61.0 °F 53.1 °F 75% 30.22 in 10.0 mi SSE 6.9 mph - N/A   Overcast
3:53 AM 60.1 °F 53.1 °F 78% 30.22 in 10.0 mi SSE 9.2 mph - N/A   Overcast
4:53 AM 59.0 °F 53.1 °F 81% 30.22 in 10.0 mi SE 8.1 mph - N/A   Overcast
5:53 AM 57.9 °F 53.1 °F 84% 30.23 in 10.0 mi SSE 5.8 mph - N/A   Clear
6:53 AM 55.4 °F 53.6 °F 94% 30.21 in 10.0 mi ESE 5.8 mph - N/A   Clear
7:53 AM 62.1 °F 54.0 °F 75% 30.25 in 10.0 mi SSE 8.1 mph - N/A   Clear
8:53 AM 66.0 °F 55.9 °F 70% 30.25 in 10.0 mi South 16.1 mph - N/A   Clear
9:53 AM 70.0 °F 57.9 °F 65% 30.25 in 10.0 mi South 11.5 mph - N/A   Scattered Clouds
10:53 AM 73.9 °F 59.0 °F 59% 30.23 in 10.0 mi SSE 11.5 mph 17.3 mph N/A   Clear
11:53 AM 75.9 °F 59.0 °F 56% 30.21 in 10.0 mi SSW 10.4 mph - N/A   Clear
12:53 PM 78.1 °F 57.9 °F 50% 30.17 in 10.0 mi SSE 9.2 mph - N/A   Partly Cloudy
1:53 PM 77.0 °F 55.9 °F 48% 30.13 in 10.0 mi South 15.0 mph - N/A   Clear
2:53 PM 77.0 °F 55.9 °F 48% 30.11 in 10.0 mi SE 13.8 mph - N/A   Clear
3:53 PM 75.9 °F 55.0 °F 48% 30.12 in 10.0 mi SE 8.1 mph - N/A   Mostly Cloudy
4:53 PM 75.2 °F 53.6 °F 47% 30.11 in 10.0 mi SE 6.9 mph - N/A   Mostly Cloudy
5:53 PM 71.1 °F 53.1 °F 53% 30.11 in 10.0 mi SE 8.1 mph - N/A   Clear
6:53 PM 68.0 °F 54.0 °F 61% 30.13 in 10.0 mi SE 6.9 mph - N/A   Clear
7:53 PM 66.2 °F 53.6 °F 64% 30.10 in 10.0 mi SE 8.1 mph - N/A   Clear
8:53 PM 66.0 °F 54.0 °F 65% 30.11 in 10.0 mi SE 9.2 mph - N/A   Clear
9:53 PM 66.0 °F 54.0 °F 65% 30.10 in 10.0 mi SE 12.7 mph - N/A   Clear
10:53 PM 64.9 °F 54.0 °F 68% 30.11 in 10.0 mi SSE 9.2 mph - N/A   Clear
11:53 PM 63.0 °F 54.0 °F 72% 30.10 in 10.0 mi SE 8.1 mph - N/A   Clear